Tracking 23731 objects as of 27-Sep-2021
HD Live streaming from Space Station
objects crossing your sky now

IUS DEB

Track IUS DEB now!
10-day predictions


NORAD ID: 43365
Int'l Code: 1999-040N
Perigee: 811.1 km
Apogee: 8,874.5 km
Inclination: 28.2 °
Period: 197.0 minutes
Semi major axis: 11213 km
RCS: Unknown
Launch date: July 23, 1999
Source: United States (US)
Launch site: AIR FORCE EASTERN TEST RANGE (AFETR)

Note: This is SATELLITE DEBRIS
aabbcc
Your satellite tracking list
Your tracking list is empty




NASA's NSSDC Master Catalog

Two Line Element Set (TLE):
1 43365U 99040N   21267.23543648 -.00002811  00000-0 -17847-1 0  9998
2 43365  28.1604 270.4854 3595317 175.8931 188.1981  7.31099609127584
Source of the keplerian elements: AFSPC